TimePST,TemperatureF,Dew PointF,Humidity,Sea Level PressureIn,VisibilityMPH,Wind Direction,Wind SpeedMPH,Gust SpeedMPH,PrecipitationIn,Events,Conditions,WindDirDegrees,DateUTC
12:53 AM,48.9,37.9,66,29.84,10.0,SSW,18.4,33.4,0.00,,Overcast,200,2014-02-17 08:53:00
1:53 AM,48.0,39.0,71,29.83,9.0,SSW,15.0,31.1,0.00,Rain,Light Rain,210,2014-02-17 09:53:00
2:53 AM,48.0,39.9,74,29.81,7.0,SSW,18.4,27.6,0.05,Rain,Light Rain,200,2014-02-17 10:53:00
3:53 AM,46.9,-9999,N/A,29.81,6.0,SSW,15.0,25.3,0.10,Rain,Light Rain,210,2014-02-17 11:53:00
4:53 AM,46.9,-9999,N/A,29.79,5.0,SSW,10.4,25.3,0.15,Rain,Rain,210,2014-02-17 12:53:00
5:53 AM,46.0,-9999,N/A,29.78,4.0,South,17.3,31.1,0.30,Rain,Rain,190,2014-02-17 13:53:00
6:53 AM,46.9,-9999,N/A,29.78,4.0,SW,12.7,19.6,0.17,Rain,Rain,220,2014-02-17 14:53:00
7:03 AM,46.0,-9999,N/A,29.79,4.0,West,13.8,20.7,0.04,Rain,Rain,260,2014-02-17 15:03:00
7:32 AM,46.0,-9999,N/A,29.79,5.0,Calm,Calm,-,0.15,Rain,Rain,0,2014-02-17 15:32:00
7:53 AM,46.0,-9999,N/A,29.79,8.0,ESE,3.5,-,0.16,Rain,Light Rain,120,2014-02-17 15:53:00
8:00 AM,46.0,-9999,N/A,29.79,8.0,Calm,Calm,-,0.01,Rain,Light Rain,0,2014-02-17 16:00:00
8:25 AM,46.0,-9999,N/A,29.80,1.8,SSW,3.5,-,0.06,Rain,Rain,210,2014-02-17 16:25:00
8:36 AM,46.0,-9999,N/A,29.80,3.0,Calm,Calm,-,0.08,Rain,Light Rain,0,2014-02-17 16:36:00
8:53 AM,46.0,-9999,N/A,29.80,10.0,Calm,Calm,-,0.08,,Overcast,0,2014-02-17 16:53:00
9:53 AM,48.0,-9999,N/A,29.82,8.0,Variable,3.5,-,0.02,Rain,Light Rain,0,2014-02-17 17:53:00
10:26 AM,46.9,-9999,N/A,29.84,4.0,WSW,10.4,-,0.04,Rain,Light Rain,250,2014-02-17 18:26:00
10:53 AM,48.9,-9999,N/A,29.87,10.0,West,9.2,-,0.05,Rain,Light Rain,280,2014-02-17 18:53:00
11:53 AM,51.1,-9999,N/A,29.89,10.0,West,12.7,-,0.00,,Mostly Cloudy,270,2014-02-17 19:53:00
12:53 PM,53.1,-9999,N/A,29.91,10.0,West,11.5,-,N/A,,Mostly Cloudy,260,2014-02-17 20:53:00
1:53 PM,54.0,43.0,66,29.90,10.0,WSW,12.7,-,N/A,,Mostly Cloudy,250,2014-02-17 21:53:00
2:53 PM,48.9,39.0,69,29.92,10.0,West,11.5,-,0.02,Rain,Light Rain,270,2014-02-17 22:53:00
3:53 PM,50.0,37.9,63,29.93,10.0,West,9.2,-,0.00,,Mostly Cloudy,280,2014-02-17 23:53:00
4:53 PM,48.0,37.9,68,29.95,10.0,West,8.1,-,0.01,Rain,Light Rain,270,2014-02-18 00:53:00
5:53 PM,46.0,37.9,73,29.94,10.0,West,4.6,-,0.00,,Scattered Clouds,280,2014-02-18 01:53:00
6:53 PM,43.0,37.9,82,29.97,10.0,Calm,Calm,-,N/A,,Partly Cloudy,0,2014-02-18 02:53:00
7:53 PM,44.1,39.9,85,29.98,10.0,Calm,Calm,-,N/A,,Mostly Cloudy,0,2014-02-18 03:53:00
8:53 PM,45.0,39.9,82,30.00,10.0,Calm,Calm,-,N/A,,Overcast,0,2014-02-18 04:53:00
9:53 PM,46.0,41.0,83,30.02,10.0,South,6.9,-,0.00,,Mostly Cloudy,170,2014-02-18 05:53:00
10:53 PM,46.0,39.9,79,30.02,10.0,South,6.9,-,N/A,,Overcast,180,2014-02-18 06:53:00
11:53 PM,46.0,41.0,83,30.02,10.0,Variable,3.5,-,0.01,Rain,Light Rain,0,2014-02-18 07:53:00